| Date | Temp High/Low | Dew Pt High/Low | Humidity | Wind | Max Wind | Wind Gust | Pressure | Precip. | Condition |
|---|---|---|---|---|---|---|---|---|---|
| 11/30/2022 | 52 °F / 37 °F | 41 °F / 27 °F | 62 % | 15 mph | - | 29.92 in | 0 in | ||
| 11/29/2022 | 60 °F / 31 °F | 32 °F / 24 °F | 52 % | 10 mph | - | 29.98 in | 0 in | ||
| 11/28/2022 | 60 °F / 36 °F | 41 °F / 32 °F | 64 % | 9 mph | - | 29.9 in | 0 in | ||
| 11/27/2022 | 64 °F / 33 °F | 39 °F / 31 °F | 60 % | 7 mph | - | 30.05 in | 0 in | ||
| 11/26/2022 | 65 °F / 35 °F | 39 °F / 32 °F | 59 % | 12 mph | - | 30.13 in | 0 in | ||
| 11/25/2022 | 71 °F / 36 °F | 41 °F / 34 °F | 66 % | 9 mph | - | 30.24 in | 0 in | ||
| 11/24/2022 | 69 °F / 37 °F | 40 °F / 33 °F | 64 % | 3 mph | - | 30.19 in | 0 in | ||
| 11/23/2022 | 69 °F / 34 °F | 38 °F / 30 °F | 61 % | 7 mph | - | 30.13 in | 0 in | ||
| 11/22/2022 | 69 °F / 33 °F | 36 °F / 27 °F | 63 % | 7 mph | - | 30.13 in | 0 in | ||
| 11/21/2022 | 65 °F / 32 °F | 35 °F / 29 °F | 60 % | 7 mph | - | 30.16 in | 0 in | ||
| 11/20/2022 | 66 °F / 33 °F | 33 °F / 28 °F | 57 % | 6 mph | - | 30.22 in | 0 in | ||
| 11/19/2022 | 66 °F / 31 °F | 33 °F / 22 °F | 43 % | 12 mph | - | 30.15 in | 0 in | ||
| 11/18/2022 | 65 °F / 38 °F | 38 °F / 25 °F | 51 % | 23 mph | - | 30.04 in | 0 in | ||
| 11/17/2022 | 68 °F / 38 °F | 41 °F / 34 °F | 67 % | 7 mph | - | 30.2 in | 0 in | ||
| 11/16/2022 | 66 °F / 37 °F | 36 °F / 29 °F | 54 % | 9 mph | - | 30.3 in | 0 in | ||
| 11/15/2022 | 66 °F / 35 °F | 37 °F / 30 °F | 53 % | 18 mph | - | 30.18 in | 0 in | ||
| 11/14/2022 | 71 °F / 34 °F | 39 °F / 33 °F | 69 % | 9 mph | - | 30.12 in | 0 in | ||
| 11/13/2022 | 61 °F / 34 °F | 39 °F / 29 °F | 59 % | 22 mph | - | 30.09 in | 0 in | ||
| 11/12/2022 | 65 °F / 38 °F | 46 °F / 39 °F | 73 % | 9 mph | - | 30.06 in | 0.01 in | ||
| 11/11/2022 | 61 °F / 44 °F | 44 °F / 34 °F | 76 % | 7 mph | - | 30.1 in | 0 in | ||
| 11/10/2022 | 60 °F / 35 °F | 42 °F / 37 °F | 74 % | 12 mph | - | 30.2 in | 0 in | ||
| 11/9/2022 | 60 °F / 40 °F | 45 °F / 40 °F | 75 % | 10 mph | - | 30.05 in | 0 in | ||
| 11/8/2022 | 60 °F / 43 °F | 47 °F / 42 °F | 82 % | 17 mph | - | 29.6 in | 0.84 in | ||
| 11/7/2022 | 54 °F / 47 °F | 48 °F / 39 °F | 72 % | 17 mph | - | 29.78 in | 0.52 in | ||
| 11/6/2022 | 61 °F / 46 °F | 54 °F / 38 °F | 63 % | 20 mph | - | 29.8 in | 0 in | ||
| 11/5/2022 | 67 °F / 51 °F | 55 °F / 38 °F | 69 % | 15 mph | - | 30.06 in | 0 in | ||
| 11/4/2022 | 65 °F / 40 °F | 38 °F / 31 °F | 54 % | 7 mph | - | 30.27 in | 0 in | ||
| 11/3/2022 | 64 °F / 36 °F | 38 °F / 26 °F | 58 % | 17 mph | - | 30.15 in | 0 in | ||
| 11/2/2022 | 63 °F / 41 °F | 45 °F / 38 °F | 67 % | 13 mph | - | 30 in | 0 in | ||
| 11/1/2022 | 63 °F / 48 °F | 54 °F / 38 °F | 72 % | 22 mph | - | 29.77 in | 0.18 in |